| time (UTC) | temp C | wind direction | speed KPH | gust KPH | rain 1hr cm | rain 24hr cm | rain mn cm | humidity % | barometer mb |
| 20260506034552 | 7 | 0 | 0.0 | 6.4 | 0.00 | 2.18 | 2.18 | 90 | 1012.5 |
| 20260506033053 | 7 | 0 | 0.0 | 11.3 | 0.00 | 2.18 | 2.18 | 89 | 1012.4 |
| 20260506031544 | 7 | 59 | 3.2 | 11.3 | 0.00 | 2.18 | 2.18 | 90 | 1011.8 |
| 20260506030042 | 7 | 56 | 1.6 | 11.3 | 0.00 | 2.18 | 2.18 | 90 | 1011.6 |
| 20260506024603 | 7 | 70 | 1.6 | 11.3 | 0.00 | 2.18 | 2.18 | 90 | 1011.7 |
| 20260506023048 | 7 | 337 | 1.6 | 14.5 | 0.00 | 2.18 | 2.18 | 89 | 1011.4 |
| 20260506021546 | 7 | 44 | 0.0 | 11.3 | 0.00 | 2.18 | 2.18 | 89 | 1011.2 |
| 20260506020037 | 7 | 0 | 1.6 | 11.3 | 0.00 | 2.18 | 2.18 | 89 | 1010.9 |
| 20260506014544 | 7 | 99 | 1.6 | 9.7 | 0.00 | 2.18 | 2.18 | 90 | 1011.0 |
| 20260506013047 | 7 | 60 | 3.2 | 12.9 | 0.00 | 2.18 | 2.18 | 90 | 1010.8 |
| 20260506011604 | 7 | 354 | 3.2 | 11.3 | 0.00 | 2.18 | 2.18 | 90 | 1010.3 |
| 20260506010039 | 7 | 85 | 1.6 | 9.7 | 0.00 | 2.18 | 2.18 | 90 | 1010.6 |
| 20260506004546 | 7 | 65 | 3.2 | 11.3 | 0.00 | 2.18 | 2.18 | 90 | 1010.2 |
| 20260506003043 | 7 | 66 | 0.0 | 12.9 | 0.00 | 2.18 | 2.18 | 90 | 1010.3 |
| 20260506001544 | 7 | 0 | 3.2 | 11.3 | 0.00 | 2.18 | 2.18 | 89 | 1010.3 |
| 20260506000051 | 8 | 356 | 0.0 | 14.5 | 0.00 | 2.18 | 2.18 | 88 | 1010.2 |
| 20260505234540 | 8 | 1 | 3.2 | 11.3 | 0.00 | 2.18 | 2.18 | 88 | 1010.0 |
| 20260505233038 | 8 | 359 | 6.4 | 17.7 | 0.00 | 2.18 | 2.18 | 87 | 1009.6 |
| 20260505231541 | 8 | 58 | 1.6 | 14.5 | 0.00 | 2.18 | 2.18 | 87 | 1009.4 |
| 20260505230038 | 8 | 96 | 3.2 | 14.5 | 0.00 | 2.18 | 2.18 | 85 | 1009.5 |
| 20260505224546 | 8 | 8 | 0.0 | 14.5 | 0.00 | 2.18 | 2.18 | 84 | 1009.4 |
| 20260505223042 | 8 | 65 | 3.2 | 11.3 | 0.00 | 2.18 | 2.18 | 84 | 1009.1 |
| 20260505221546 | 9 | 4 | 0.0 | 16.1 | 0.00 | 2.18 | 2.18 | 84 | 1008.8 |
| 20260505220059 | 9 | 39 | 1.6 | 22.5 | 0.00 | 2.18 | 2.18 | 84 | 1008.9 |
| 20260505214551 | 9 | 97 | 4.8 | 14.5 | 0.00 | 2.18 | 2.18 | 84 | 1008.8 |
| 20260505213044 | 9 | 91 | 6.4 | 17.7 | 0.00 | 2.18 | 2.18 | 85 | 1008.8 |
| 20260505211545 | 9 | 345 | 0.0 | 16.1 | 0.00 | 2.18 | 2.18 | 87 | 1008.7 |
| 20260505210046 | 9 | 91 | 4.8 | 19.3 | 0.00 | 2.18 | 2.18 | 86 | 1008.7 |
| 20260505204555 | 10 | 11 | 3.2 | 14.5 | 0.00 | 2.18 | 2.18 | 88 | 1008.7 |
| 20260505203046 | 10 | 38 | 4.8 | 17.7 | 0.00 | 2.18 | 2.18 | 87 | 1008.7 |
| 20260505201548 | 10 | 42 | 3.2 | 20.9 | 0.00 | 2.18 | 2.18 | 88 | 1008.6 |
| 20260505200042 | 10 | 31 | 4.8 | 16.1 | 0.00 | 2.18 | 2.18 | 88 | 1008.8 |
| 20260505194556 | 10 | 58 | 3.2 | 14.5 | 0.00 | 2.18 | 2.18 | 89 | 1008.5 |
| 20260505193047 | 10 | 81 | 3.2 | 12.9 | 0.00 | 2.18 | 2.18 | 88 | 1008.5 |
| 20260505191547 | 11 | 37 | 4.8 | 17.7 | 0.00 | 2.18 | 2.18 | 87 | 1007.9 |
| 20260505190043 | 11 | 45 | 1.6 | 16.1 | 0.00 | 2.18 | 2.18 | 87 | 1008.1 |
| 20260505184550 | 11 | 60 | 3.2 | 17.7 | 0.00 | 2.18 | 2.18 | 86 | 1008.3 |
| 20260505183054 | 11 | 311 | 1.6 | 12.9 | 0.00 | 2.18 | 2.18 | 86 | 1008.3 |
| 20260505181539 | 11 | 321 | 3.2 | 20.9 | 0.00 | 2.18 | 2.18 | 86 | 1008.1 |
| 20260505180050 | 11 | 51 | 4.8 | 19.3 | 0.00 | 2.18 | 2.18 | 86 | 1007.6 |
| 20260505174548 | 11 | 64 | 6.4 | 25.7 | 0.00 | 2.18 | 2.18 | 87 | 1007.8 |
| 20260505173042 | 11 | 58 | 1.6 | 16.1 | 0.00 | 2.18 | 2.18 | 89 | 1007.7 |
| 20260505171550 | 11 | 33 | 6.4 | 19.3 | 0.00 | 2.18 | 2.18 | 89 | 1007.5 |
| 20260505170051 | 12 | 340 | 1.6 | 14.5 | 0.00 | 2.18 | 2.18 | 90 | 1007.8 |
| 20260505164559 | 12 | 25 | 3.2 | 11.3 | 0.03 | 2.18 | 2.18 | 90 | 1007.7 |
| 20260505163039 | 12 | 41 | 1.6 | 16.1 | 0.03 | 2.18 | 2.18 | 91 | 1007.3 |
| 20260505161553 | 12 | 0 | 3.2 | 16.1 | 0.03 | 2.18 | 2.18 | 90 | 1007.4 |
| 20260505153045 | 13 | 80 | 4.8 | 14.5 | 0.00 | 2.16 | 2.16 | 90 | 1007.0 |
| 20260505151547 | 13 | 0 | 3.2 | 12.9 | 0.00 | 2.16 | 2.16 | 91 | 1006.8 |
| 20260505124549 | 15 | 0 | 0.0 | 6.4 | 0.05 | 2.16 | 2.16 | 96 | 1006.2 |
| 20260505123043 | 15 | 0 | 0.0 | 4.8 | 0.03 | 2.13 | 2.13 | 96 | 1006.3 |
| 20260505121549 | 15 | 0 | 0.0 | 4.8 | 0.03 | 2.13 | 2.13 | 96 | 1005.8 |
| 20260505120059 | 15 | 0 | 0.0 | 4.8 | 0.00 | 2.11 | 2.11 | 96 | 1005.8 |
| 20260505114543 | 15 | 0 | 0.0 | 3.2 | 0.03 | 2.11 | 2.11 | 96 | 1005.4 |
| 20260505113049 | 15 | 68 | 0.0 | 4.8 | 0.03 | 2.11 | 2.11 | 96 | 1005.3 |
| 20260505111547 | 15 | 63 | 0.0 | 4.8 | 0.05 | 2.11 | 2.11 | 96 | 1005.1 |
| 20260505101546 | 15 | 124 | 0.0 | 4.8 | 0.03 | 2.06 | 2.06 | 96 | 1005.0 |
| 20260505100039 | 15 | 139 | 0.0 | 6.4 | 0.10 | 2.06 | 2.06 | 96 | 1005.1 |
| 20260505094545 | 15 | 0 | 0.0 | 3.2 | 0.15 | 2.06 | 2.06 | 96 | 1005.3 |
| 20260505093050 | 15 | 0 | 0.0 | 1.6 | 0.20 | 2.06 | 2.06 | 96 | 1005.7 |
| 20260505091547 | 15 | 0 | 0.0 | 1.6 | 0.28 | 2.03 | 2.03 | 96 | 1005.8 |
| 20260505090047 | 15 | 153 | 0.0 | 9.7 | 0.56 | 1.96 | 1.96 | 96 | 1005.6 |
| 20260505084553 | 15 | 239 | 0.0 | 6.4 | 0.74 | 1.91 | 1.91 | 96 | 1005.5 |
| 20260505083051 | 15 | 212 | 1.6 | 6.4 | 0.86 | 1.85 | 1.85 | 95 | 1005.4 |
| 20260505081549 | 15 | 0 | 0.0 | 3.2 | 0.86 | 1.75 | 1.75 | 95 | 1006.1 |
| 20260505080043 | 15 | 0 | 0.0 | 4.8 | 0.61 | 1.40 | 1.40 | 95 | 1007.1 |
| 20260505074539 | 15 | 191 | 0.0 | 3.2 | 0.61 | 1.17 | 1.17 | 94 | 1005.6 |
| 20260505073049 | 15 | 0 | 0.0 | 1.6 | 0.76 | 0.99 | 0.99 | 94 | 1006.1 |
| 20260505071545 | 15 | 0 | 0.0 | 1.6 | 0.76 | 0.89 | 0.89 | 93 | 1007.8 |
| 20260505070047 | 16 | 0 | 0.0 | 1.6 | 0.69 | 0.76 | 0.76 | 92 | 1007.9 |
| 20260505064540 | 16 | 0 | 0.0 | 3.2 | 0.53 | 0.56 | 0.56 | 91 | 1007.9 |
| 20260505063047 | 16 | 0 | 0.0 | 1.6 | 0.23 | 0.23 | 0.23 | 88 | 1007.3 |
| 20260505061546 | 16 | 0 | 0.0 | 1.6 | 0.13 | 0.13 | 0.13 | 85 | 1006.3 |
| 20260505060051 | 17 | 0 | 0.0 | 6.4 | 0.08 | 0.08 | 0.08 | 82 | 1005.9 |
| 20260505054549 | 18 | 182 | 0.0 | 12.9 | 0.03 | 0.03 | 0.03 | 78 | 1005.5 |
| 20260505053111 | 18 | 121 | 1.6 | 11.3 | 0.00 | 0.00 | 0.00 | 75 | 1005.8 |
| 20260505051549 | 18 | 160 | 0.0 | 8.0 | 0.00 | 0.00 | 0.00 | 73 | 1006.0 |
| 20260505041545 | 19 | 0 | 0.0 | 6.4 | 0.00 | 0.00 | 0.00 | 72 | 1006.0 |
| 20260505040051 | 18 | 0 | 0.0 | 6.4 | 0.00 | 0.00 | 0.00 | 72 | 1006.0 |